TimeEST,TemperatureF,Dew PointF,Humidity,Sea Level PressureIn,VisibilityMPH,Wind Direction,Wind SpeedMPH,Gust SpeedMPH,PrecipitationIn,Events,Conditions,WindDirDegrees,DateUTC
12:53 AM,6.1,1.0,80,30.25,8.0,Calm,Calm,-,N/A,,Clear,0,2013-01-03 05:53:00
1:53 AM,6.1,1.0,80,30.24,9.0,Calm,Calm,-,N/A,,Clear,0,2013-01-03 06:53:00
2:53 AM,3.9,-0.9,80,30.23,9.0,Calm,Calm,-,N/A,,Clear,0,2013-01-03 07:53:00
3:53 AM,6.1,-0.0,76,30.24,10.0,Calm,Calm,-,N/A,,Clear,0,2013-01-03 08:53:00
4:53 AM,8.1,-0.0,70,30.25,9.0,Calm,Calm,-,N/A,,Clear,0,2013-01-03 09:53:00
5:53 AM,14.0,3.9,64,30.25,10.0,SW,6.9,-,N/A,,Clear,230,2013-01-03 10:53:00
6:53 AM,16.0,5.0,62,30.25,10.0,WSW,8.1,-,N/A,,Clear,240,2013-01-03 11:53:00
7:53 AM,15.1,6.1,68,30.27,10.0,WSW,5.8,-,N/A,,Clear,240,2013-01-03 12:53:00
8:53 AM,18.0,8.1,65,30.27,10.0,WSW,5.8,-,N/A,,Clear,240,2013-01-03 13:53:00
9:53 AM,21.0,10.9,65,30.29,10.0,West,8.1,-,N/A,,Clear,260,2013-01-03 14:53:00
10:53 AM,23.0,12.9,65,30.30,10.0,West,5.8,-,N/A,,Partly Cloudy,270,2013-01-03 15:53:00
11:53 AM,25.0,15.1,66,30.31,10.0,WSW,5.8,-,N/A,,Clear,250,2013-01-03 16:53:00
12:53 PM,28.9,19.0,67,30.29,10.0,WSW,5.8,-,N/A,,Clear,250,2013-01-03 17:53:00
1:53 PM,32.0,21.9,66,30.27,10.0,WSW,8.1,-,N/A,,Clear,250,2013-01-03 18:53:00
2:53 PM,32.0,21.9,66,30.29,10.0,WNW,8.1,-,N/A,,Overcast,300,2013-01-03 19:53:00
3:53 PM,30.9,23.0,72,30.30,8.0,WSW,6.9,-,N/A,,Overcast,240,2013-01-03 20:53:00
4:53 PM,30.9,23.0,72,30.31,8.0,West,6.9,-,N/A,,Overcast,260,2013-01-03 21:53:00
5:53 PM,30.0,21.9,72,30.32,8.0,WSW,4.6,-,N/A,,Mostly Cloudy,250,2013-01-03 22:53:00
6:03 PM,30.2,21.2,69,30.29,9.0,WSW,4.6,-,N/A,,Mostly Cloudy,240,2013-01-03 23:03:00
6:53 PM,28.0,21.0,75,30.34,8.0,WSW,5.8,-,N/A,,Mostly Cloudy,240,2013-01-03 23:53:00
7:09 PM,28.4,21.2,74,30.31,7.0,WSW,5.8,-,N/A,,Scattered Clouds,240,2013-01-04 00:09:00
7:53 PM,27.0,21.0,78,30.34,7.0,WSW,5.8,-,N/A,,Overcast,240,2013-01-04 00:53:00
8:53 PM,28.9,21.9,75,30.34,8.0,West,4.6,-,N/A,,Overcast,260,2013-01-04 01:53:00
9:53 PM,30.0,21.9,72,30.34,9.0,West,4.6,-,N/A,,Overcast,270,2013-01-04 02:53:00
10:26 PM,30.2,21.2,69,30.31,10.0,West,5.8,-,N/A,,Overcast,270,2013-01-04 03:26:00
10:53 PM,30.9,21.9,69,30.35,10.0,West,5.8,-,N/A,,Overcast,260,2013-01-04 03:53:00
11:53 PM,30.9,21.9,69,30.36,10.0,West,6.9,-,N/A,,Overcast,260,2013-01-04 04:53:00